Charlottesville, VA

2:39 AM EDT on October 22, 2019 (GMT -0400)
Charlottesville-Albemarle

Weather History for KCHO - August, 2019

Change the Weather History Date:

Thursday, August 1, 2019

  Actual Average Record
Temperature  
Mean Temperature 78 °F 75 °F  
Max Temperature 91 °F 86 °F 102 °F (1954)
Min Temperature 65 °F 65 °F 55 °F (1903)
Degree Days  
Heating Degree Days 0 0  
Month to date heating degree days 0 0  
Since 1 June heating degree days 0 12  
Since 1 July heating degree days 0 1  
Cooling Degree Days 13 10  
Month to date cooling degree days 13 10  
Year to date cooling degree days 1081 640  
Since 1 June cooling degree days 795 554  
Growing Degree Days 26 (Base 50)    
Moisture  
Dew Point 66 °F    
Average Humidity 70    
Maximum Humidity 93    
Minimum Humidity 46    
Precipitation  
Precipitation 0.22 in 0.13 in 1.31 in (2013)
Month to date precipitation 0.22 0.13  
Year to date precipitation 25.52 24.65  
Sea Level Pressure  
Sea Level Pressure 30.08 in    
Wind  
Wind Speed 3 mph (SW)    
Max Wind Speed 13 mph    
Max Gust Speed 17 mph    
Visibility 6 miles    
Events Fog , Rain , Thunderstorm    
T = Trace of Precipitation, MM = Missing Value Source: NWS Daily Summary

Daily Weather History Graph

Daily Weather History Graph

Search for Another Location

Airport or City:

Astronomy

Aug. 01, 2019 Rise Set
Actual Time 6:16 AM EDT 8:23 PM EDT
Civil Twilight 5:46 AM EDT 8:52 PM EDT
Nautical Twilight 5:11 AM EDT 9:28 PM EDT
Astronomical Twilight 4:32 AM EDT 10:07 PM EDT
Moon 6:38 AM EDT (8/1) 9:09 PM EDT (8/1)
Length of Visible Light 15h 05m
Length of Day
14h 07m
New Moon, 0% of the Moon is Illuminated
Aug 1
New Moon
Aug 7
First Quarter
Aug 15
Full
Aug 23
Last Quarter
Aug 30
New

Hourly Weather History & Observations

Time (EDT) Temp. Heat Index Dew Point Humidity Pressure Visibility Wind Dir Wind Speed Gust Speed Precip Events Conditions
12:21 AM 68.0 °F - 64.9 °F 90% 30.09 in 3.0 mi Calm Calm - N/A   Overcast
12:48 AM 66.2 °F - 64.4 °F 94% 30.09 in 9.0 mi South 3.5 mph - N/A   Scattered Clouds
12:53 AM 66.9 °F - 64.0 °F 90% 30.07 in 9.0 mi Calm Calm - N/A   Partly Cloudy
1:28 AM 66.9 °F - 64.0 °F 90% 30.09 in 5.0 mi Calm Calm - N/A   Mostly Cloudy
1:53 AM 66.9 °F - 64.0 °F 90% 30.06 in 5.0 mi Calm Calm - N/A   Overcast
2:24 AM 66.9 °F - 64.0 °F 90% 30.08 in 6.0 mi Calm Calm - N/A   Scattered Clouds
2:28 AM 66.9 °F - 64.0 °F 90% 30.08 in 2.5 mi Calm Calm - N/A   Mostly Cloudy
2:33 AM 66.9 °F - 64.0 °F 90% 30.08 in 0.8 mi Calm Calm - N/A   Mist
2:53 AM 66.0 °F - 63.0 °F 90% 30.06 in 0.2 mi Calm Calm - N/A Fog Fog
3:53 AM 66.0 °F - 63.0 °F 90% 30.06 in 0.2 mi Calm Calm - N/A Fog Fog
4:47 AM 64.4 °F - 62.6 °F 94% 30.07 in 1.5 mi SSW 3.5 mph - N/A   Scattered Clouds
4:53 AM 66.0 °F - 62.1 °F 87% 30.06 in 2.0 mi WSW 4.6 mph - N/A   Scattered Clouds
4:58 AM 66.0 °F - 62.1 °F 87% 30.07 in 1.5 mi WSW 4.6 mph - N/A   Mostly Cloudy
5:53 AM 64.9 °F - 62.1 °F 90% 30.06 in 0.5 mi Calm Calm - N/A Fog Fog
6:53 AM 64.9 °F - 62.1 °F 90% 30.07 in 0.2 mi Calm Calm - N/A Fog Fog
7:32 AM 66.0 °F - 63.0 °F 90% 30.09 in 0.2 mi Calm Calm - N/A Fog Fog
7:53 AM 66.9 °F - 64.9 °F 93% 30.09 in 0.2 mi Calm Calm - N/A Fog Fog
8:27 AM 69.1 °F - 66.9 °F 93% 30.11 in 2.0 mi Calm Calm - N/A   Overcast
8:53 AM 69.1 °F - 66.0 °F 90% 30.10 in 2.0 mi Calm Calm - N/A   Mostly Cloudy
9:25 AM 73.0 °F - 66.9 °F 81% 30.12 in 10.0 mi Calm Calm - N/A   Scattered Clouds
9:53 AM 75.9 °F - 68.0 °F 76% 30.10 in 10.0 mi Calm Calm - N/A   Clear
10:53 AM 81.0 °F 83.8 °F 68.0 °F 65% 30.10 in 10.0 mi Calm Calm - N/A   Clear
11:53 AM 84.9 °F 87.6 °F 66.9 °F 55% 30.10 in 10.0 mi NE 4.6 mph - N/A   Clear
12:53 PM 87.1 °F 88.9 °F 64.9 °F 48% 30.09 in 10.0 mi ESE 4.6 mph - N/A   Clear
1:53 PM 89.1 °F 92.9 °F 68.0 °F 50% 30.08 in 10.0 mi Variable 4.6 mph - N/A   Clear
2:53 PM 89.1 °F 92.1 °F 66.9 °F 48% 30.06 in 10.0 mi East 5.8 mph - N/A   Scattered Clouds
3:53 PM 88.0 °F 90.7 °F 66.9 °F 49% 30.04 in 10.0 mi Variable 4.6 mph - N/A   Mostly Cloudy
4:53 PM 89.1 °F 91.3 °F 66.0 °F 46% 30.03 in 10.0 mi Variable 4.6 mph - N/A   Clear
5:53 PM 84.9 °F 88.2 °F 68.0 °F 57% 30.03 in 10.0 mi Calm Calm - N/A   Clear
6:53 PM 81.0 °F 83.8 °F 68.0 °F 65% 30.03 in 10.0 mi North 3.5 mph - N/A   Clear
7:53 PM 78.1 °F - 68.0 °F 71% 30.05 in 10.0 mi Calm Calm - N/A   Clear
8:51 PM 78.8 °F - 68.0 °F 69% 30.08 in 10.0 mi Calm Calm - N/A Thunderstorm Mostly Cloudy
8:53 PM 79.0 °F - 69.1 °F 72% 30.06 in 10.0 mi Calm Calm - N/A Thunderstorm Mostly Cloudy
9:19 PM 77.0 °F - 69.1 °F 76% 30.09 in 10.0 mi Variable 3.5 mph - N/A Thunderstorm Thunderstorm
9:34 PM 78.1 °F - 68.0 °F 71% 30.08 in 10.0 mi WSW 4.6 mph - N/A Thunderstorm Overcast
9:53 PM 78.1 °F - 66.9 °F 68% 30.06 in 10.0 mi NNW 3.5 mph - 0.00 in Rain , Thunderstorm Light Rain
10:25 PM 75.0 °F - 69.1 °F 82% 30.09 in 6.0 mi NNW 6.9 mph - 0.02 in Rain , Thunderstorm Rain
10:53 PM 73.0 °F - 66.0 °F 79% 30.09 in 10.0 mi Variable 4.6 mph - 0.02 in Thunderstorm Overcast
11:11 PM 73.0 °F - 66.0 °F 79% 30.13 in 10.0 mi SSE 9.2 mph - 0.00 in Rain , Thunderstorm Light Thunderstorms and Rain
11:53 PM 70.0 °F - 64.0 °F 81% 30.12 in 10.0 mi South 10.4 mph - 0.10 in Rain , Thunderstorm Light Thunderstorms and Rain